Location: Fourches
(48.6254°N, 2.6811°E)
Time: 04:42:17
(UTC+00:00)

Daily predictions for brighter satellites

Satellite Brightness Start Highest point End
(mag) Time Altitude Azimuth Time Altitude Azimuth Time Altitude Azimuth
Lacrosse 4 Rocket 4.3 00:04:56 10° NW 00:06:20 11° NNW 00:07:44 10° N
Cosmos 1844 Rocket 4.3 00:02:22 10° NW 00:05:29 21° W 00:05:29 21° W
Cosmos 1943 Rocket 3.8 00:01:57 10° NNW 00:06:56 30° NE 00:10:24 17° E
SL-16 R/B 3.8 00:06:04 22° W 00:08:23 29° NW 00:13:19 10° NNE
ATLAS 5 CENTAUR R/B 3.9 00:06:51 10° NNW 00:10:39 25° NNE 00:15:07 10° E
RESURS DK-1 4.4 00:13:30 22° ENE 00:13:30 22° ENE 00:15:15 10° NE
Cosmos 972 Rocket 4.4 00:12:33 54° ENE 00:12:33 54° ENE 00:16:42 10° NNE
Cosmos 1867 3.9 00:10:56 10° NW 00:15:26 59° WNW 00:15:26 59° WNW
NOSS 2-2 (D) 4.2 00:14:18 10° NW 00:18:12 58° NNE 00:18:12 58° NNE
USA 32 4.2 00:20:05 63° NW 00:20:05 63° NW 00:24:52 10° N
Cosmos 2344 4.1 00:20:32 10° NW 00:28:44 75° NE 00:39:59 10° SE
Tsikada Rocket 3.9 00:30:35 67° WSW 00:31:00 69° WNW 00:37:10 10° N
USA 215 4.0 00:28:36 10° ENE 00:34:07 34° SE 00:34:07 34° SE
Lacrosse 5 3.2 00:35:37 22° WNW 00:38:23 38° NNW 00:43:10 10° NE
NOSS 2-3 (C) 4.4 00:37:39 10° NW 00:43:17 89° WSW 00:45:10 52° SE
ATLAS 3B R/B 4.5 00:36:46 10° NW 00:43:47 35° NNE 00:50:51 10° E
NOSS 0 Rocket 4.0 00:45:55 57° SE 00:46:17 58° ESE 00:52:20 10° NE
NOSS 2-3 (D) 4.4 00:42:44 10° NW 00:48:21 88° SW 00:50:19 50° SE
NOSS 3-4 (A) 4.3 00:51:31 30° W 00:53:41 41° NW 00:59:36 10° NE
NOSS 3-4 (C) 4.3 00:51:35 30° W 00:53:43 42° NW 00:59:39 10° NE
Gbstr 26 Del rocket 3.5 00:57:32 57° NNE 00:57:32 57° NNE 01:01:01 10° ENE
H-2A R/B 3.9 00:54:42 10° NNW 00:57:39 21° WNW 00:57:39 21° WNW
Cosmos 2237 Rocket 2.5 00:59:39 51° ESE 00:59:59 52° ESE 01:05:30 10° NE
Cosmos 1980 3.9 01:02:36 57° SE 01:02:56 58° ESE 01:08:29 10° NE
IDEFIX/ARIANE 42P 3.6 00:58:19 10° NNE 01:03:05 35° E 01:03:55 33° ESE
CZ-2D R/B 3.4 01:04:08 10° NNE 01:08:58 32° E 01:10:23 28° SE
USA 267 3.5 01:03:51 10° ESE 01:10:17 67° NNE 01:16:46 10° NW
Cosmos 2360 Rocket 4.1 01:10:54 15° WNW 01:13:40 21° NW 01:17:56 10° N
COSMOS 2428 2.9 01:13:37 53° W 01:14:26 58° WNW 01:20:04 10° NNE
Meteor 2-6 Rocket 4.3 01:15:50 62° WSW 01:16:33 69° WNW 01:22:26 10° N
Cosmos 1743 Rocket 4.1 01:12:50 10° N 01:17:04 51° ENE 01:17:16 50° E
Cosmos 2180 Rocket 4.4 01:12:37 10° NNW 01:18:58 69° W 01:19:59 59° SW
Cosmos 1726 4.0 01:16:36 10° N 01:17:56 23° N 01:17:56 23° N
Resurs 1-4 Rocket 2.9 01:16:01 10° NNE 01:21:01 41° E 01:22:16 35° SE
Cosmos 2322 4.4 01:21:01 38° W 01:22:15 43° NW 01:27:44 10° NNE
Cosmos 2219 Rocket 3.6 01:23:12 23° WNW 01:25:02 28° NW 01:29:51 10° NNE
Cosmos 2221 4.1 01:26:50 25° WNW 01:26:50 25° WNW 01:29:52 10° NNW
IRIDIUM 104 4.2 01:21:26 10° N 01:26:39 70° W 01:26:54 68° WSW
Cosmos 2278 Rocket 2.5 01:27:27 10° NW 01:32:30 47° W 01:32:30 47° W
IRIDIUM 114 4.4 01:30:38 10° N 01:35:46 58° W 01:36:02 57° WSW
USA 290 4.2 01:36:39 10° N 01:39:30 27° ENE 01:40:17 25° E
Cosmos 2333 Rocket 4.4 01:38:15 10° WNW 01:41:47 17° NW 01:45:28 10° N
Meteor 2-10 4.2 01:36:37 10° NNW 01:42:21 88° ENE 01:44:15 45° SSE
COBE Rocket 4.1 01:37:49 10° NNE 01:42:23 56° E 01:43:14 48° SE
Cosmos 1420 Rocket 4.0 01:37:06 10° NNW 01:42:24 85° ENE 01:44:11 43° SSE
Cosmos 1680 Rocket 3.6 01:42:34 54° SSE 01:43:39 68° ESE 01:48:56 10° NNE
ADEOS II 3.0 01:40:20 10° NNE 01:45:19 42° E 01:47:23 29° SSE
RESURS DK-1 3.7 01:49:06 28° NW 01:49:19 28° NW 01:52:54 10° NNE
Meteor 1-28 Rocket 4.4 01:49:05 31° ESE 01:50:10 39° ENE 01:53:36 10° N
Cosmos 1943 Rocket 2.2 01:45:28 10° NW 01:51:02 58° WSW 01:51:51 53° SSW
Nadezhda 4 Rocket 4.0 01:50:48 48° SW 01:52:25 65° WNW 01:58:31 10° N
ATLAS 2AS CENTAUR R/B 3.0 01:49:36 38° S 01:52:26 62° ESE 01:59:28 10° NE
ATLAS 5 CENTAUR R/B 1.9 01:50:10 10° NW 01:55:04 88° SW 02:01:10 10° SE
Cosmos 1408 Rocket 4.5 01:51:42 10° NNW 01:54:59 34° WNW 01:54:59 34° WNW
Cosmos 1428 Rocket 4.4 01:53:46 43° SSW 01:56:00 87° W 02:02:16 10° N
Cosmos 2056 Rocket 3.5 01:50:39 10° NNW 01:56:06 88° WSW 01:58:37 33° SSE
SL-16 R/B 2.9 01:54:58 32° SSE 01:57:05 46° ESE 02:02:28 10° NE
Sich 1 3.2 01:57:35 10° NNW 02:01:28 51° W 02:01:28 51° W
Cosmos 1340 Rocket 3.1 02:01:32 50° SE 02:02:05 56° E 02:05:57 10° NNE
CZ-2C R/B 2.5 02:00:14 38° S 02:02:26 84° WSW 02:07:45 10° NNW
Meteor 1-27 Rocket 3.7 02:01:01 47° SSW 02:02:41 75° WNW 02:08:19 10° N
GP-B 3.0 01:58:33 10° N 02:02:59 82° E 02:03:57 55° S
GEOS 3 Rocket 3.6 01:59:37 10° SE 02:04:59 89° NE 02:10:19 10° NW
Okean 1 3.8 02:05:34 44° WNW 02:05:34 44° WNW 02:08:55 10° N
Cosmos 1624 Rocket 3.8 02:00:49 10° NNW 02:06:02 75° WSW 02:08:03 38° S
SL-16 R/B 2.7 02:00:25 11° SSE 02:06:18 72° ENE 02:12:32 10° NNW
ALOS 3.6 02:03:26 10° NNE 02:07:41 34° E 02:10:18 20° SSE
NPP 3.7 02:05:05 10° N 02:10:28 68° WNW 02:12:10 43° SW
NOSS 3-1 (A) 4.3 02:03:35 10° NW 02:10:40 70° NE 02:19:21 10° SE
Cosmos 1340 2.5 02:07:16 10° N 02:10:42 68° ENE 02:10:59 64° ESE
Cosmos 1536 4.5 02:08:44 10° NW 02:10:40 21° WNW 02:10:40 21° WNW
Cosmos 1805 3.0 02:09:16 10° N 02:13:00 89° E 02:13:21 72° SSE
Cosmos 1733 3.9 02:10:54 10° NNW 02:13:33 38° WNW 02:13:33 38° WNW
H-2A R/B 4.0 02:13:30 10° N 02:17:20 40° WNW 02:17:40 39° W
USA 215 3.2 02:11:22 10° NE 02:17:57 86° NNW 02:21:28 30° WSW
Cosmos 1805 Rocket 4.3 02:14:23 10° NNW 02:18:06 35° W 02:18:06 35° W
Intercosmos 25 Rocket 4.2 02:15:57 10° N 02:19:54 66° E 02:26:03 10° SSE
Lacrosse 5 3.5 02:17:44 10° WNW 02:22:23 33° N 02:27:01 10° ENE
COSMOS 2441 4.3 02:17:46 10° NNE 02:22:41 85° WNW 02:24:30 39° SSW
Cosmos 1666 Rocket 3.5 02:18:43 10° N 02:23:12 89° W 02:25:08 33° S
Cosmos 1553 Rocket 4.1 02:17:51 10° N 02:24:08 78° E 02:30:02 11° SSE
NOSS 3-1 (C) 4.0 02:21:23 10° NW 02:28:37 67° SW 02:37:24 10° SSE
ATLAS 3B R/B 3.1 02:27:44 10° NW 02:35:37 84° NE 02:43:26 10° SE
MSX 4.1 02:30:21 10° N 02:35:57 53° WNW 02:38:35 30° SW
Cosmos 1371 Rocket 4.5 02:33:27 10° NW 02:38:21 40° WSW 02:39:56 32° SW
Cosmos 1656 Rocket 3.5 02:34:34 10° NNW 02:40:00 83° WSW 02:45:26 10° SSE
Cosmos 2026 Rocket 4.3 02:37:38 29° SW 02:40:47 55° WNW 02:47:05 10° N
IDEFIX/ARIANE 42P 3.3 02:37:51 10° N 02:42:37 37° WNW 02:44:41 26° WSW
Cosmos 1328 Rocket 3.5 02:41:11 32° SSW 02:43:14 83° W 02:47:41 10° N
Cosmos 1626 1.8 02:42:31 41° S 02:43:32 75° E 02:46:50 10° NNE
Gbstr 26 Del rocket 3.3 02:39:47 11° WNW 02:43:51 61° N 02:47:38 10° E
USA 308 3.2 02:42:30 28° WNW 02:44:07 50° NNW 02:47:58 10° ENE
Cosmos 2237 Rocket 3.3 02:41:27 21° W 02:44:17 33° NW 02:49:26 10° NNE
Cosmos 2369 Rocket 2.2 02:38:48 10° NNW 02:44:26 86° ENE 02:50:02 10° SSE
Cosmos 1092 Rocket 4.3 02:42:40 28° SW 02:45:39 50° WNW 02:51:40 10° N
Cosmos 1151 Rocket 3.9 02:47:22 29° WSW 02:48:27 33° WNW 02:52:25 10° N
CZ-2C R/B 3.2 02:43:35 10° N 02:48:49 63° WNW 02:51:58 26° SW
CZ-2D R/B 2.7 02:44:00 10° N 02:49:04 43° WNW 02:51:41 26° WSW
Cosmos 1975 3.1 02:45:50 10° NNW 02:49:31 42° W 02:50:22 36° SW
Cosmos 921 Rocket 3.4 02:48:29 33° WSW 02:50:04 49° WNW 02:54:22 10° N
SAR-Lupe-1 4.1 02:49:11 10° N 02:52:46 65° WNW 02:54:03 36° SW
Cosmos 1633 Rocket 3.1 02:48:31 10° NNW 02:52:46 54° W 02:55:02 26° SSW
Cosmos 2297 3.7 02:47:19 10° NNW 02:53:01 65° WSW 02:58:42 10° SSE
USA 267 3.3 02:47:10 10° SSE 02:53:27 51° SW 02:59:48 10° WNW
AQUA 3.9 02:49:32 10° N 02:54:12 60° WNW 02:56:42 27° SW
SAR-Lupe-4 3.7 02:53:27 10° N 02:56:57 54° WNW 02:58:13 34° SW
Resurs 1-4 Rocket 3.0 02:56:01 10° N 03:00:43 33° WNW 03:03:20 21° WSW
Cosmos 1766 3.0 03:00:37 10° NNW 03:04:18 72° W 03:07:19 15° S
Cosmos 494 Rocket 4.0 03:02:00 23° SW 03:05:11 69° WNW 03:10:19 10° NNE
Iridium 51 3.9 03:05:13 18° S 03:07:38 81° E 03:11:06 10° N
Meteor 2-4 Rocket 4.0 03:04:17 22° SW 03:07:40 51° WNW 03:13:13 10° N
Cosmos 1943 3.8 03:03:45 11° S 03:09:00 54° ESE 03:14:33 10° NE
FENGYUN 3A 4.1 03:05:39 10° N 03:10:49 47° WNW 03:14:21 20° SW
Cosmos 1048 Rocket 4.0 03:09:34 19° SSW 03:13:26 78° WNW 03:18:41 10° NNE
USA 290 3.9 03:11:22 10° NW 03:13:02 18° W 03:13:02 18° W
UNK 4.0 03:10:15 13° S 03:14:03 46° W 03:18:31 10° NNW
Cosmos 2263 4.1 03:08:25 10° NNW 03:14:03 78° WSW 03:19:43 10° SSE
Thor Agena Rocket 4.4 03:10:06 10° NNE 03:14:59 48° E 03:19:53 10° S
CZ-2C R/B 3.0 03:15:41 10° NNE 03:20:49 60° E 03:25:50 10° S
H-2A R/B 4.4 03:18:12 10° NE 03:22:12 23° E 03:26:14 10° SE
ADEOS II 3.0 03:20:12 10° N 03:24:49 32° WNW 03:28:17 16° WSW
USA 306 4.4 03:22:03 10° S 03:24:53 21° SE 03:27:39 10° E
PAYLOAD A 4.5 03:20:37 10° NNE 03:25:22 55° E 03:29:59 10° S
EO 1 Delta rocket 4.3 03:21:55 10° N 03:26:22 47° WNW 03:30:33 14° SW
Cosmos 468 4.5 03:23:30 14° SSW 03:28:07 80° WNW 03:33:23 10° NNE
Cosmos 883 Rocket 4.4 03:22:06 10° N 03:28:15 87° W 03:34:23 10° S
Cosmos 1707 2.7 03:27:41 10° S 03:31:21 78° E 03:35:03 10° NNE
Cosmos 1302 Rocket 4.1 03:27:20 10° NNW 03:32:34 80° ENE 03:37:45 10° SSE
IRS-1D 3.9 03:27:54 10° NNE 03:33:03 66° ESE 03:38:17 10° S
CZ-4 R/B 3.8 03:29:20 10° N 03:34:01 71° WNW 03:38:37 10° SSW
Cosmos 1842 3.1 03:32:03 11° SSW 03:35:40 68° W 03:39:25 10° N
Cosmos 1110 Rocket 4.3 03:30:58 10° NW 03:35:58 44° WSW 03:40:59 10° S
YAOGAN 6 2.5 03:35:12 10° NNE 03:38:31 77° ESE 03:41:49 10° S
ATLAS 5 CENTAUR R/B 3.5 03:35:04 10° WNW 03:38:43 19° WSW 03:42:50 10° SSW
Cosmos 2266 Rocket 4.0 03:32:59 10° SSW 03:38:58 66° WNW 03:44:59 10° N
Cosmos 1603 4.2 03:35:24 10° SSW 03:40:55 62° ESE 03:46:30 10° NNE
SL-16 R/B 3.1 03:36:50 13° WSW 03:41:20 36° NW 03:46:33 10° NNE
S3M 4.2 03:35:49 10° NNW 03:41:49 54° W 03:47:53 10° SSW
SL-08 ROCKET BODY 4.4 03:36:34 10° SSW 03:42:31 70° W 03:48:37 10° N
CZ-2C R/B 4.4 03:41:42 11° WSW 03:43:27 13° W 03:45:55 10° WNW
ATLAS 2AS CENTAUR R/B 3.5 03:37:01 11° WSW 03:43:42 44° NW 03:50:26 10° NE
Cosmos 1452 Rocket 4.0 03:39:33 10° NW 03:44:21 36° WSW 03:49:06 10° SSW
Cosmos 1515 Rocket 4.1 03:40:24 11° SW 03:44:21 42° WNW 03:48:35 10° N
ALOS 3.2 03:40:46 10° N 03:44:51 31° WNW 03:48:37 11° SW
Cosmos 1869 Rocket 3.5 03:42:42 10° NNW 03:47:03 76° W 03:51:21 10° S
Envisat 3.1 03:44:42 10° N 03:49:43 61° WNW 03:54:42 10° SSW
SL-16 R/B 3.7 03:45:45 10° SW 03:50:28 22° W 03:55:15 10° NW
USA 215 4.0 03:54:24 10° ENE 04:00:38 48° NNW 04:06:50 10° W
Cosmos 2228 Rocket 3.6 03:59:33 10° S 04:03:53 63° E 04:08:14 10° NNE
Meteor 1-22 Rocket 4.1 03:59:14 10° NNW 04:04:48 79° W 04:10:09 10° S
Cosmos 1674 3.5 04:02:21 10° SW 04:05:20 27° WNW 04:08:20 10° NNW
Lacrosse 5 2.4 04:01:00 10° NW 04:06:05 65° NNE 04:11:11 10° ESE
Meteor 1-13 Rocket 4.4 04:02:40 10° SSW 04:08:26 69° WNW 04:14:21 10° N
CZ-3 R/B 4.3 03:51:36 10° SW 04:10:36 27° S 04:18:12 10° SE
USA 229 DEB 4.0 04:04:09 10° NW 04:11:33 69° SW 04:19:33 10° SSE
USA 229 4.0 04:04:16 10° NW 04:11:39 69° SW 04:19:37 10° SSE
